Lid_Strength_Index
1 1 -1 1 1 0 -0 1 2 1 2 2 2 1 1 1 1 1 1 1 1 1 1 1 1 1 2 4 4 1 -1 -1 0 1 3 4 4 5 7 6 6 7 5 4 4 4 4
1 1 0 1 -0 -0 1 1 2 2 2 3 2 2 2 1 1 2 2 2 1 2 2 1 1 2 3 6 2 1 1 1 1 2 3 3 4 4 5 5 6 6 5 6 5 5 4
2 1 1 1 1 -0 -0 2 2 2 2 2 2 3 2 2 2 2 2 2 2 2 1 1 1 1 3 5 2 1 1 2 2 2 3 2 2 4 4 6 4 5 7 6 5 5 5
2 2 2 2 1 1 1 1 1 0 1 2 2 2 2 2 3 3 3 2 2 2 1 1 0 1 4 1 2 3 2 2 1 1 2 2 2 4 5 4 5 7 7 9 6 5 5
0 2 2 2 1 1 2 1 1 1 1 2 2 2 3 4 3 4 4 4 3 1 1 1 1 2 4 3 4 3 2 3 2 2 2 2 3 4 4 7 8 7 9 8 7 5 5
1 1 2 3 2 1 1 2 1 1 1 2 2 3 3 3 4 4 4 4 2 3 0 0 1 4 3 5 3 2 1 2 3 3 4 4 5 6 6 7 11 9 9 8 8 6 6
1 1 1 3 3 2 1 1 1 1 1 2 2 2 2 3 3 4 3 2 5 4 3 4 4 4 4 3 2 4 3 3 4 5 7 5 8 9 8 6 7 7 8 9 7 6 7
2 1 1 1 2 3 2 1 1 2 2 2 2 2 2 2 3 4 2 3 3 3 6 4 3 3 2 2 5 4 3 5 5 7 6 7 9 7 7 6 7 7 8 8 7 6 7
2 2 1 1 1 1 2 2 1 2 2 2 2 2 2 3 3 2 1 2 0 1 7 7 5 5 4 3 5 5 4 5 6 7 7 9 7 6 7 7 8 8 8 8 8 7 6
2 2 1 1 1 1 2 2 2 2 2 2 3 2 3 3 3 1 2 0 -0 -0 9 9 7 6 5 4 6 3 2 5 6 8 7 7 6 7 7 7 7 9 6 7 8 9 11
2 2 2 1 1 1 1 3 2 2 2 3 3 2 3 3 1 3 1 -1 -1 1 16 7 6 3 4 6 6 5 2 4 7 7 7 8 7 7 8 8 6 8 6 7 7 9 9
2 2 2 2 2 2 2 2 5 2 2 3 3 3 3 2 1 0 -1 -1 1 11 16 8 6 7 7 6 6 5 5 3 4 6 6 7 5 6 8 6 6 5 7 7 7 9 13
2 2 2 2 2 2 1 2 2 3 2 3 3 3 3 1 3 -1 -1 2 11 14 7 8 8 7 7 8 8 7 8 7 9 10 10 8 8 6 5 7 6 7 9 13 14 14 14
1 1 1 1 1 1 1 1 2 4 3 3 3 3 2 1 -0 -2 1 8 15 10 9 6 7 6 8 7 8 7 8 9 8 8 9 11 12 8 6 7 8 8 9 13 16 16 15
-1 -1 -1 -1 0 1 1 0 2 2 3 3 4 2 1 2 -2 -0 6 13 13 10 7 8 7 9 9 7 7 8 8 8 7 7 10 10 10 6 6 7 7 8 10 7 11 11 15
-1 -1 -1 -1 -1 -1 0 1 1 2 3 3 3 4 4 0 -1 2 9 12 10 8 7 7 11 9 11 9 9 9 9 7 7 6 6 8 11 7 7 6 6 7 6 11 11 17 17
-1 -1 -1 -1 -1 -1 0 0 1 1 3 3 4 7 4 -0 1 6 12 11 9 7 6 8 9 10 9 10 9 9 9 7 6 7 6 7 9 10 7 9 9 9 10 9 9 11 16
-1 -1 -1 -1 -1 0 0 1 1 1 1 4 5 10 3 2 9 9 11 10 9 8 6 7 7 8 9 9 9 10 9 8 5 6 8 7 9 13 10 7 6 7 9 9 15 14 13
-1 -1 -1 -1 -1 0 0 1 1 2 2 4 7 7 2 4 13 11 8 9 8 8 7 8 8 7 7 10 12 10 8 6 6 7 8 7 11 15 15 10 7 9 8 8 9 10 14
-1 -1 -1 -1 0 0 1 2 2 2 3 3 6 11 7 7 7 9 10 11 11 7 7 6 7 6 8 10 8 10 10 7 6 6 7 7 9 13 17 14 10 11 9 8 10 15 13
-1 -1 -1 -0 0 0 1 2 3 2 2 2 6 9 7 11 10 9 8 9 11 10 7 6 8 8 9 11 10 10 9 8 6 7 7 7 11 11 11 10 9 10 10 10 10 10 13
-1 -1 -1 -0 -0 0 1 2 2 2 2 3 8 8 7 8 8 9 9 10 10 9 8 10 9 8 8 10 9 10 9 10 9 7 7 7 12 11 15 9 9 11 9 10 9 9 9
-1 -1 -0 -0 -0 0 1 2 2 2 2 4 4 3 6 9 9 10 10 9 10 8 7 7 7 8 9 7 6 6 6 6 7 8 9 9 10 12 15 10 10 13 10 9 9 8 8
-1 -1 -1 -0 0 1 1 1 2 2 3 2 3 4 8 11 10 10 8 8 9 8 9 7 6 8 6 3 4 5 5 6 6 7 6 9 10 12 15 12 19 10 7 7 8 7 7
-1 -1 -1 -0 0 1 2 2 2 3 2 2 2 4 7 11 9 9 8 8 8 7 8 8 6 5 3 5 9 10 10 10 9 7 7 7 10 14 16 15 12 9 8 8 9 9 6
-1 -1 -1 -1 0 1 2 2 2 3 3 3 1 1 4 9 9 6 8 8 10 10 10 8 5 4 5 8 10 14 15 12 12 10 7 7 8 12 14 17 17 9 6 5 6 11 6
-1 -1 -1 -1 0 1 2 2 2 3 4 5 2 1 4 8 6 6 9 9 7 9 10 9 8 8 5 10 13 14 14 9 13 13 13 12 12 16 15 17 13 7 6 5 13 11 6
-1 -1 -1 -1 -0 2 2 2 2 2 3 4 3 1 3 7 6 5 5 7 7 8 10 8 9 9 10 12 12 12 12 10 10 9 11 13 14 15 14 16 17 6 6 10 7 5 5
-1 -0 -0 -1 -0 1 2 2 3 3 3 4 5 2 1 6 8 4 6 6 6 5 7 6 8 8 8 10 9 9 11 10 10 14 8 13 10 13 11 12 6 5 6 4 4 4 4